Terminal Aerodrome Forecast
Issued by NWS

Home | Current Version | Previous Version | Text Only | Print | Product List | Glossary On
Versions: 1 2 3 4 5 6 7 8 9 10 11 12 13 14 15 16 17
000
FTUS43 KFGF 240200 AAA
TAFDVL
TAF AMD
KDVL 240219Z 2402/2424 13019KT P6SM OVC022
      TEMPO 2402/2404 5SM -RA BR OVC009
     FM240400 14010KT P6SM BKN025
     FM241200 20010KT P6SM SCT025
      AMD LTD TO CLD VIS AND WIND=

USA.gov is the U.S. government's official web portal to all federal, state and local government web resources and services.